This is the latest recevied weather packets stored in our database for station/object KC5TIL-3. If no packets are shown the sender has not sent any weather packets the latest 10 day(s).
| Time | Temp. | Humidity | Pressure | Rain* | Wind** | Luminosity | Snow |
|---|---|---|---|---|---|---|---|
| 1787713806 | 33.89° C | 11% | 1010.8 hPa | 0 mm | 3.13 m/s, 150° | - | - |
| 1787713503 | 33.89° C | 11% | 1010.8 hPa | 0 mm | 2.68 m/s, 117° | - | - |
| 1787713205 | 33.89° C | 11% | 1010.8 hPa | 0 mm | 2.24 m/s, 180° | - | - |
| 1787712903 | 33.89° C | 11% | 1010.8 hPa | 0 mm | 2.68 m/s, 197° | - | - |
| 1787712605 | 33.89° C | 11% | 1010.8 hPa | 0 mm | 2.68 m/s, 174° | - | - |
| 1787712307 | 33.89° C | 11% | 1010.8 hPa | 0 mm | 2.68 m/s, 144° | - | - |
| 1787712006 | 33.89° C | 11% | 1010.8 hPa | 0 mm | 2.68 m/s, 181° | - | - |
| 1787711707 | 33.89° C | 11% | 1010.8 hPa | 0 mm | 3.13 m/s, 159° | - | - |
| 1787711409 | 33.89° C | 11% | 1010.8 hPa | 0 mm | 3.58 m/s, 214° | - | - |
| 1787711108 | 34.44° C | 11% | 1010.8 hPa | 0 mm | 2.68 m/s, 172° | - | - |
| 1787710810 | 34.44° C | 11% | 1010.8 hPa | 0 mm | 3.58 m/s, 182° | - | - |
| 1787710512 | 34.44° C | 11% | 1010.8 hPa | 0 mm | 2.68 m/s, 197° | - | - |
| 1787710210 | 34.44° C | 11% | 1010.8 hPa | 0 mm | 2.68 m/s, 147° | - | - |
| 1787709912 | 34.44° C | 11% | 1010.8 hPa | 0 mm | 2.24 m/s, 147° | - | - |
| 1787709614 | 34.44° C | 11% | 1010.8 hPa | 0 mm | 1.79 m/s, 146° | - | - |
| 1787709312 | 34.44° C | 11% | 1010.8 hPa | 0 mm | 2.24 m/s, 207° | - | - |
| 1787709014 | 34.44° C | 11% | 1010.8 hPa | 0 mm | 2.24 m/s, 146° | - | - |
| 1787708716 | 34.44° C | 11% | 1010.8 hPa | 0 mm | 2.24 m/s, 162° | - | - |
| 1787708415 | 34.44° C | 11% | 1010.8 hPa | 0 mm | 1.79 m/s, 227° | - | - |
| 1787708117 | 34.44° C | 11% | 1010.8 hPa | 0 mm | 2.24 m/s, 218° | - | - |
| 1787707818 | 34.44° C | 11% | 1010.8 hPa | 0 mm | 2.68 m/s, 175° | - | - |
| 1787707517 | 35° C | 11% | 1010.8 hPa | 0 mm | 2.24 m/s, 142° | - | - |
| 1787707219 | 35° C | 11% | 1010.8 hPa | 0 mm | 3.13 m/s, 135° | - | - |
| 1787706921 | 35° C | 11% | 1010.8 hPa | 0 mm | 2.68 m/s, 147° | - | - |
| 1787706615 | 35° C | 11% | 1010.8 hPa | 0 mm | 2.68 m/s, 151° | - | - |
* Rain latest hour (hover to see other rain measurements)
** Current wind speed in m/s (hover to see current wind gust speed)